CAPE
0 0 0 0 0 0 0 0 0 0 0 2 5 8 7 13 5 5 6 9 8 11 15 18 20 19 18
0 0 0 0 0 0 0 0 0 0 0 5 6 13 23 7 4 6 6 10 10 10 13 14 20 24 27
0 0 0 0 0 0 0 0 0 0 2 1 6 6 4 6 6 8 8 6 6 7 12 14 15 17 22
0 0 0 0 0 0 0 0 0 0 0 0 0 0 0 0 1 2 1 2 5 8 16 24 29 35 31
0 0 0 0 0 0 0 0 0 0 0 0 0 0 0 0 0 0 0 4 14 25 36 39 45 51 59
0 0 0 0 0 2 4 0 0 0 0 0 0 0 0 0 0 1 4 8 12 27 43 66 64 60 62
1 9 17 0 3 2 0 0 0 0 0 0 0 0 0 0 1 7 13 21 23 34 41 56 54 49 58
0 0 0 0 0 0 0 0 0 0 0 1 0 0 0 0 7 7 13 27 39 47 46 46 54 55 57
37 41 54 65 53 14 6 0 0 3 8 20 3 1 0 0 0 1 18 36 32 32 37 41 32 37 17
0 0 1 0 18 1 0 0 0 0 0 0 0 0 1 0 0 0 0 0 1 3 7 14 17 0 0
0 0 0 0 0 0 0 2 2 2 0 9 15 30 29 0 0 0 0 0 0 0 0 2 6 10 0
14 22 17 5 1 12 2 1 4 19 14 16 0 0 0 0 0 0 0 0 0 0 0 3 17 23 21
31 31 32 3 5 1 0 0 0 0 0 0 0 0 0 3 9 6 6 0 0 1 1 2 3 0 1
28 26 13 1 0 0 0 0 0 0 0 0 0 4 11 8 6 7 0 2 0 1 4 4 1 2 2
0 5 1 1 0 0 0 0 0 0 0 1 0 0 0 2 3 3 2 2 1 0 4 6 2 1 4
0 0 0 0 0 0 0 0 0 1 0 0 0 0 2 1 12 5 5 2 0 2 9 18 7 0 1
0 0 0 0 0 0 0 0 0 1 2 2 2 1 0 0 0 1 2 1 4 7 6 6 4 1 0
CIN
-0 -0 -0 -0 -0 -0 -0 -0 -0 -0 -0 -0 -0 -0 -0 -0 -0 -0 -0 -0 -0 -0 -0 -0 -0 -0 -0
-0 -0 -0 -0 -0 -0 -0 -0 -0 -0 -0 -0 -0 -0 -0 -0 -0 -0 -0 -0 -0 -0 -0 -0 -0 -0 -0
-0 -0 -0 -0 -0 -0 -0 -0 -0 -0 -0 -0 -0 -0 -0 -0 -0 -0 -0 -0 -0 -0 -0 -0 -0 -0 -0
-0 -0 -0 -0 -0 -0 -0 -0 -0 -0 -0 -0 -0 -0 -0 -0 -0 -0 -0 -0 -0 -0 -0 -0 -0 -0 -0
-0 -0 -0 -0 -0 -0 -0 -0 -0 -0 -0 -0 -0 -0 -0 -0 -0 -0 -0 -0 -0 -0 -0 -0 -0 -0 -0
-0 -0 -0 -0 -0 -0 -0 -0 -0 -0 -0 -0 -0 -0 -0 -0 -0 -0 -0 -0 -0 -0 -0 -0 -0 -0 -0
-0 -0 -0 -0 -1 -0 -0 -0 -0 -0 -0 -0 -0 -0 -0 -0 -0 -0 -0 -0 -0 -0 -0 -0 -0 -0 -0
-0 -0 -0 -0 -0 -0 -0 -0 -0 -0 -0 -0 -0 -0 -0 -0 -0 -0 -0 -0 -0 -0 -0 -0 -0 -0 -0
-0 -0 -0 -0 -0 -1 -9 -0 -0 -0 -0 -0 -1 -0 -0 -0 -0 -0 -0 -0 -0 -0 -0 -0 -0 -0 -3
-0 -0 -0 -0 -0 -4 -0 -0 -0 -0 -0 -0 -0 -0 -1 -0 -0 -0 -0 -0 -0 -0 -0 -0 -0 -0 -0
-3 -0 -0 -0 -0 -0 -0 -16 -1 -3 -0 -2 -1 -0 -4 -0 -0 -0 -0 -0 -0 -0 -0 -0 -0 -0 -0
-2 -2 -1 -1 -2 -0 -4 -3 -6 -0 -1 -4 -0 -0 -0 -0 -0 -0 -0 -0 -0 -0 -0 -0 -0 -0 -0
-0 -0 -0 -2 -4 -2 -0 -0 -0 -0 -0 -0 -0 -0 -0 -2 -1 -1 -2 -0 -0 -3 -3 -2 -2 -3 -1
-0 -0 -1 -6 -0 -0 -0 -0 -0 -0 -0 -0 -0 -2 -1 -2 -1 -1 -2 -1 -0 -3 -1 -1 -1 -2 -2
-4 -0 -0 -0 -0 -0 -0 -0 -0 -0 -0 -1 -1 -0 -0 -2 -1 -1 -1 -2 -2 -1 -1 -1 -2 -3 -2
-0 -0 -0 -0 -0 -0 -0 -0 -0 -1 -2 -0 -1 -2 -1 -0 -0 -1 -1 -1 -2 -2 -1 -0 -0 -0 -4
-0 -0 -0 -0 -0 -0 -0 -0 -0 -1 -1 -2 -1 -3 -3 -0 -0 -0 -3 -2 -1 -2 -2 -2 -2 -2 -4
Wind_Speed
3 4 4 6 9 9 9 9 7 20 22 21 21 21 22 19 20 21 22 21 22 23 23 23 23 23 22
8 6 7 7 7 7 9 10 9 16 23 23 24 22 23 19 23 23 23 22 22 23 23 23 22 23 24
9 5 5 4 8 9 9 6 9 16 20 23 20 20 23 23 25 24 23 22 23 23 23 23 24 24 24
9 9 8 7 5 7 9 5 6 7 11 16 21 24 28 26 24 23 22 24 24 25 25 25 25 25 25
9 10 9 9 10 8 8 6 5 3 8 10 9 9 10 18 20 23 25 25 26 27 27 27 28 26 25
11 12 13 8 7 8 6 6 9 7 11 12 8 9 9 8 20 25 27 28 28 27 28 29 28 28 26
12 9 8 6 6 8 9 10 12 10 10 12 8 11 9 11 23 26 28 28 29 29 29 28 27 28 29
14 14 13 11 11 11 14 14 13 12 11 13 10 12 10 10 24 28 29 29 28 27 28 29 30 30 30
28 28 29 30 25 12 10 10 10 8 5 9 8 11 11 12 12 26 29 26 28 29 29 30 31 32 24
14 18 22 18 27 17 10 11 10 11 9 10 10 10 12 10 8 7 8 21 28 31 32 32 32 16 13
12 11 12 12 11 12 13 11 11 12 12 12 11 11 7 6 10 10 10 13 13 17 28 31 31 27 14
10 9 9 10 10 11 13 12 11 15 11 9 8 10 12 13 14 11 11 12 12 13 13 20 29 31 32
9 9 9 8 9 8 8 6 8 11 11 15 12 13 12 13 13 12 15 12 12 13 13 13 13 12 14
9 9 6 4 5 5 7 8 9 11 13 14 16 15 12 12 13 13 13 15 13 13 13 14 14 14 15
8 7 6 5 7 7 8 9 11 12 12 10 10 13 13 15 14 14 14 14 14 15 15 16 16 15 15
4 4 6 7 8 9 9 10 12 12 12 11 10 11 11 15 23 15 15 15 15 16 16 16 18 14 14
5 6 7 8 13 9 10 11 13 13 13 11 11 11 14 18 13 23 15 14 14 14 15 16 18 16 15
Wind_Direction
262 262 270 271 290 290 290 283 276 288 295 289 292 292 294 292 304 306 303 301 305 303 304 305 302 300 297
278 267 250 261 261 270 282 279 281 283 292 284 293 287 285 306 301 299 301 299 300 301 300 297 300 302 300
279 268 252 255 272 270 265 265 281 281 292 293 295 300 298 295 297 298 298 303 301 297 295 293 293 293 293
263 266 260 252 240 267 273 251 271 284 297 295 293 295 296 292 292 294 297 295 294 294 288 287 287 287 287
260 261 258 256 249 257 258 269 262 246 277 276 277 271 269 283 287 290 290 288 288 288 288 288 287 288 290
246 248 254 256 262 262 256 268 272 253 267 267 259 263 263 265 274 282 286 289 288 287 288 286 287 288 285
271 266 275 276 256 253 256 260 267 266 261 267 261 266 264 264 275 279 282 281 285 285 285 286 289 287 289
270 273 269 267 258 256 261 264 267 260 253 264 271 270 273 264 266 277 279 281 279 283 290 290 290 291 291
274 270 266 264 263 258 254 248 255 254 240 252 263 267 266 264 263 269 273 274 283 286 287 286 286 285 285
263 268 272 273 274 274 277 270 272 276 265 261 270 267 273 254 248 249 259 273 280 282 282 281 280 279 276
263 256 252 251 251 252 250 251 263 263 267 270 270 266 261 290 275 273 272 274 272 272 276 276 276 276 275
259 256 254 248 246 246 248 250 252 264 274 267 275 276 279 279 278 276 268 266 266 267 266 267 272 273 273
273 273 266 267 255 253 254 257 261 265 267 265 262 266 261 264 271 270 274 269 265 266 267 266 265 261 266
265 267 273 260 257 252 259 264 269 271 264 262 261 257 261 262 267 272 269 271 269 265 266 264 261 255 254
258 265 267 275 277 276 274 275 273 274 272 263 259 263 259 263 267 264 269 269 266 267 265 265 261 258 256
256 268 275 277 279 279 276 271 270 268 267 266 268 272 269 262 252 266 263 264 265 266 263 263 265 257 254
282 278 276 277 288 283 276 272 269 267 266 266 264 262 269 268 271 256 267 267 269 265 261 256 261 261 255